SCP
0 0 0 0 0 0 0 0 0 0 0 1 2 3 2 2 2 2 3 3 2 2 2 2 2 2 3 4 4 5 7 8 7 5 4 3 3 4 5 5 6 7 8 8
0 0 0 1 1 1 1 1 0 0 1 1 2 3 3 3 2 2 2 3 2 2 2 2 2 2 3 3 3 4 5 6 5 4 3 3 3 3 4 5 6 6 7 8
0 0 1 1 1 1 2 2 1 1 1 2 3 2 2 2 2 2 2 2 2 3 3 3 3 2 3 3 3 3 4 4 4 3 3 3 3 3 4 5 6 6 7 7
0 0 0 1 1 1 2 2 2 2 2 2 3 2 1 2 2 2 2 2 3 4 4 3 3 3 3 4 4 3 3 3 3 3 2 3 4 4 4 5 6 7 7 7
0 0 0 0 1 1 1 2 2 2 2 2 2 1 1 1 2 2 2 3 3 4 3 3 3 3 4 4 4 3 3 3 3 2 2 2 4 6 6 6 7 7 7 6
0 0 0 0 0 0 1 1 2 2 1 1 1 1 1 2 2 2 3 3 3 3 2 2 3 4 4 4 4 3 3 3 3 2 2 2 5 7 8 8 7 6 5 4
0 0 1 1 1 1 1 1 1 1 1 1 1 1 2 3 4 4 5 5 4 3 2 2 3 4 5 5 4 4 4 4 3 2 2 2 5 9 10 8 6 5 3 3
0 0 1 1 1 1 1 1 2 2 2 1 1 2 3 4 5 5 6 6 5 4 3 2 3 4 5 5 5 5 5 4 3 3 2 3 6 9 10 8 6 4 3 3
0 0 0 1 1 1 1 2 2 2 2 2 2 3 3 4 5 5 6 6 5 4 3 2 3 4 5 5 6 6 6 5 4 4 3 4 5 8 9 8 5 4 3 3
0 0 0 1 1 1 1 2 2 2 2 3 3 3 3 4 4 4 3 4 4 3 3 4 4 5 5 6 6 5 5 5 5 4 4 4 4 6 7 6 5 4 4 4
0 0 0 1 1 1 1 1 1 2 2 2 2 3 3 3 3 2 2 2 2 2 3 4 5 5 5 5 5 4 3 3 4 4 4 4 4 4 4 4 4 4 4 4
0 0 0 1 1 1 1 1 1 2 2 2 2 2 2 2 2 1 1 1 1 1 2 2 3 3 3 4 4 3 2 2 2 3 3 3 3 3 2 2 2 2 2 3
0 0 0 1 1 1 1 1 1 2 1 1 1 1 2 1 1 1 1 1 1 1 1 1 1 2 2 3 4 4 2 2 2 2 2 2 2 2 2 2 2 1 1 1
0 0 0 0 1 1 1 1 2 2 2 2 1 1 1 1 1 1 1 1 1 1 1 1 1 2 3 4 4 4 3 2 2 1 1 1 2 2 2 2 2 2 2 1
0 0 0 0 0 1 1 2 2 2 2 2 2 1 1 1 2 2 1 1 1 1 2 2 2 4 5 5 5 4 4 3 2 2 1 1 2 2 1 1 1 2 2 2
0 0 0 0 1 1 1 2 2 3 3 3 2 1 1 1 1 1 1 1 1 1 2 3 4 7 7 5 5 5 4 4 3 2 1 1 2 2 1 1 1 1 2 3
0 0 0 1 1 1 1 2 2 3 3 3 2 1 1 1 1 1 1 1 1 1 1 2 4 6 6 5 4 5 6 5 3 2 1 1 2 2 2 2 1 1 1 2
0 0 0 1 1 1 1 1 2 2 3 3 2 1 1 1 1 0 0 0 0 0 0 1 2 5 6 4 4 5 6 5 3 2 1 1 1 2 2 2 1 1 1 1
0 0 0 1 1 1 1 1 1 1 2 2 2 2 1 1 0 0 0 0 0 0 0 1 2 6 7 5 4 5 6 5 3 2 1 0 1 1 2 2 1 1 1 1
1 1 0 1 1 1 1 1 1 1 1 2 2 2 2 1 1 0 0 0 0 0 1 1 3 7 9 8 6 6 7 5 4 2 1 0 0 1 1 1 1 1 1 1
1 1 0 0 1 1 1 1 1 1 1 1 2 1 1 1 1 0 0 0 0 0 1 2 4 7 10 9 8 7 7 6 4 2 1 0 0 0 0 1 1 1 1 0
1 1 1 0 0 0 0 0 0 1 1 1 1 1 0 1 0 0 0 0 0 0 1 2 4 7 8 8 8 7 6 5 4 2 1 0 0 0 0 0 0 1 1 0
1 1 1 0 0 0 0 0 0 0 1 1 1 0 0 0 0 0 0 0 0 0 0 1 3 5 5 6 7 8 7 5 3 2 1 0 0 0 0 0 0 1 1 0
1 1 0 0 0 0 0 0 0 0 0 0 0 0 0 0 0 0 0 0 0 0 0 1 1 2 3 5 7 8 7 5 2 1 0 0 0 0 0 0 0 1 1 1
0 0 0 0 0 0 0 0 0 0 0 0 0 0 0 0 0 0 0 0 0 0 0 0 0 1 2 4 6 7 7 5 2 1 0 0 0 0 0 0 0 0 1 1
0 0 0 0 0 0 0 0 0 0 0 0 0 0 1 1 0 0 0 0 0 0 0 0 0 1 2 4 4 5 5 3 2 1 0 0 0 0 0 0 0 0 0 1
0 0 0 0 0 0 0 0 0 0 0 0 0 0 0 0 0 0 0 0 0 0 0 0 1 2 3 3 3 3 3 3 2 1 0 0 0 0 0 0 0 0 0 0
Wind_Speed
3 2 2 2 2 4 4 6 7 7 6 8 6 5 4 3 2 1 1 1 1 2 3 3 3 4 4 5 5 5 5 5 6 5 4 3 3 3 3 3 4 4 3 3
1 1 1 1 0 2 2 3 4 3 6 5 4 2 2 2 2 2 2 2 2 2 2 3 3 4 4 4 4 5 5 5 4 3 3 3 3 3 3 3 3 3 3 4
1 1 2 2 2 3 2 2 3 4 5 3 3 3 3 3 3 3 3 2 3 2 2 2 2 3 4 4 4 4 5 4 4 4 4 4 4 3 3 3 3 3 4 4
2 2 3 6 2 2 3 1 1 2 3 3 4 3 2 2 3 3 3 3 3 2 2 1 1 1 1 2 3 3 4 3 4 4 4 4 4 4 4 3 3 3 4 4
3 2 3 4 2 2 3 2 1 2 3 3 2 2 3 2 2 3 3 2 2 2 1 0 1 2 2 2 3 3 3 3 3 4 4 4 4 4 4 3 3 3 3 4
4 3 5 6 3 1 3 3 3 1 2 2 1 1 4 3 2 1 1 1 1 1 1 1 0 2 3 2 3 3 3 3 3 3 4 4 5 4 3 3 4 3 3 3
4 3 6 5 3 2 3 6 3 2 2 1 2 4 4 2 1 1 1 1 1 1 1 0 1 2 2 2 3 3 2 2 2 2 3 3 3 2 2 2 2 2 2 2
4 3 6 3 2 4 5 3 1 1 1 1 2 2 1 1 2 1 1 1 1 1 1 1 1 2 2 2 2 1 2 2 2 1 1 1 2 2 2 3 2 2 2 2
6 6 5 2 3 2 2 1 2 1 1 1 1 1 1 2 2 2 2 1 1 1 0 1 0 2 3 2 1 1 2 2 2 2 2 2 2 2 2 2 2 2 2 3
2 4 4 3 2 1 1 2 2 1 2 2 1 1 1 1 1 2 2 2 1 0 0 1 1 1 2 1 0 1 1 1 2 2 2 1 1 2 2 3 3 3 3 3
2 4 3 3 2 2 1 1 0 0 1 2 2 1 1 1 2 1 2 1 1 1 1 2 1 1 0 1 1 1 1 1 1 1 2 2 2 2 3 3 4 4 4 4
6 6 4 5 3 1 1 1 1 0 0 0 2 2 1 1 1 1 1 1 1 1 1 2 1 1 1 2 2 2 1 2 2 2 2 2 2 2 2 3 3 5 6 5
5 3 4 3 3 2 2 2 1 1 1 1 0 1 1 0 1 1 1 1 2 2 2 1 1 1 2 2 2 2 2 2 2 2 2 2 2 2 2 2 2 3 4 5
3 1 1 2 2 2 0 0 1 2 1 1 0 1 1 0 1 1 2 3 2 2 1 1 1 2 2 2 1 1 2 3 2 2 2 2 3 3 3 3 2 2 2 3
3 3 4 3 1 0 1 2 2 2 1 1 1 0 0 0 1 2 2 2 2 1 2 2 2 3 2 2 2 2 2 2 2 2 2 2 3 3 3 3 3 3 2 2
2 1 1 1 1 1 1 1 1 1 1 0 1 1 1 1 2 2 2 1 1 2 3 3 4 4 3 2 2 2 3 4 3 2 2 2 2 3 3 3 3 3 3 3
2 2 2 2 3 2 2 2 2 2 2 2 2 2 1 1 2 3 3 3 2 3 3 3 4 4 2 3 3 3 2 3 4 3 2 2 3 3 3 3 3 4 3 3
5 5 5 5 4 3 3 2 2 2 2 2 1 1 1 1 2 3 4 3 3 3 3 3 3 3 2 2 2 2 2 2 3 3 3 3 3 3 3 3 3 4 2 2
4 4 3 4 4 4 3 3 2 2 2 1 1 1 2 2 2 3 3 2 2 4 5 4 3 2 2 3 2 1 2 2 3 3 3 3 3 3 3 3 3 3 2 2
2 2 3 2 2 2 2 2 2 2 2 2 2 1 2 2 2 2 2 3 4 4 4 3 3 2 2 2 2 1 2 2 3 3 3 3 3 3 2 2 2 2 2 2
2 2 2 2 2 2 2 3 2 3 3 2 2 2 3 3 3 2 2 4 5 4 3 3 2 2 2 2 2 2 2 2 2 2 3 2 2 2 2 2 2 2 2 2
3 2 2 2 2 2 2 2 3 3 2 2 2 2 2 3 3 3 4 4 4 3 2 2 3 3 3 2 2 2 2 2 2 2 2 2 2 2 2 2 2 2 2 2
3 3 3 3 3 2 2 2 2 2 2 3 3 3 3 3 3 3 4 4 3 3 2 3 3 4 3 2 2 2 2 2 2 2 2 2 2 2 2 2 2 2 2 2
2 2 2 2 2 2 2 3 2 2 2 3 3 3 3 2 3 3 3 4 4 4 3 3 4 4 3 2 2 2 2 2 2 2 2 2 2 2 2 2 2 2 2 2
2 2 2 2 2 2 3 2 1 1 1 1 2 2 2 2 3 3 2 3 3 3 2 3 3 3 2 2 2 2 2 2 2 2 2 2 2 2 2 2 2 2 2 2
2 2 2 2 3 2 2 1 1 1 1 1 2 2 1 1 1 1 1 2 2 2 2 1 1 1 1 2 2 2 2 2 2 2 2 2 2 2 2 2 3 2 2 2
1 1 1 1 1 1 1 1 1 2 2 1 2 2 2 1 1 1 1 1 1 1 1 1 1 2 2 2 2 1 1 1 2 2 2 2 2 2 2 3 2 2 2 2
Wind_Direction
222 223 165 176 172 162 165 178 185 231 236 261 268 263 270 283 300 345 335 310 238 219 217 206 194 195 197 200 194 189 187 197 207 205 200 200 200 210 215 216 216 209 203 208
335 11 128 106 303 173 192 184 210 246 262 271 286 284 288 288 280 264 259 271 262 242 231 224 208 201 196 200 200 185 192 205 199 189 188 197 202 202 207 216 216 205 211 217
242 315 57 292 254 206 186 192 182 218 255 305 315 294 265 258 250 254 249 258 269 264 229 227 223 208 203 201 189 188 199 199 189 185 188 197 200 202 210 217 212 217 226 224
136 92 213 241 255 187 164 202 210 251 284 282 264 271 271 259 239 252 259 261 253 250 252 240 180 181 175 158 171 186 195 194 189 186 195 194 193 208 217 211 211 221 229 228
123 167 265 291 276 181 172 257 247 265 307 321 315 357 321 295 247 241 257 262 254 252 244 194 135 165 153 156 161 164 184 199 200 190 197 196 204 217 219 210 214 220 223 223
126 154 222 244 277 245 126 273 274 241 276 293 46 1 281 301 313 301 319 335 336 345 46 68 53 128 144 171 172 188 200 203 200 196 200 206 214 216 211 208 219 219 224 224
147 192 253 260 296 87 151 246 274 231 241 210 199 227 261 298 319 290 284 312 22 47 36 315 158 127 148 192 214 221 204 184 185 194 210 207 209 212 205 206 212 218 226 235
143 170 252 288 104 163 216 250 250 225 224 220 256 283 317 334 326 318 324 334 18 53 348 318 149 144 164 228 253 222 171 162 180 196 221 206 190 202 190 187 203 224 234 253
184 209 246 263 220 241 199 214 229 195 232 181 278 304 329 327 320 326 328 323 329 132 4 343 274 174 184 245 260 204 177 177 194 211 209 208 194 202 205 198 206 223 227 237
244 266 272 284 289 307 257 237 243 203 176 161 211 256 282 294 310 330 329 317 299 159 161 288 269 191 197 238 266 211 206 213 206 208 234 236 218 207 208 215 215 221 228 237
256 275 311 311 294 291 317 331 341 0 188 186 174 238 237 272 295 301 301 310 296 224 212 259 271 192 190 192 143 232 258 258 250 230 237 239 235 226 223 225 213 212 223 222
222 227 205 253 272 273 275 281 256 161 307 247 178 202 224 267 291 299 303 326 312 265 243 256 234 219 226 214 184 189 249 262 262 250 244 240 247 281 275 244 245 237 231 224
224 224 209 253 273 255 234 253 242 182 193 203 173 157 153 246 289 306 305 290 270 257 244 243 232 245 250 236 208 191 222 253 255 250 241 235 233 235 266 293 283 258 248 243
225 174 244 248 252 273 246 50 74 61 49 78 93 102 112 40 326 304 292 286 285 271 258 255 257 268 265 249 227 213 227 251 250 254 245 237 237 236 231 232 254 274 272 254
248 210 216 238 259 286 83 88 77 51 36 18 12 55 104 314 287 286 293 300 302 283 270 257 255 268 267 243 237 240 242 248 245 251 253 245 244 241 238 235 237 244 259 262
261 258 189 196 224 209 122 116 123 216 210 249 299 303 288 281 291 296 296 281 257 270 270 259 258 260 244 230 238 251 254 264 262 244 251 250 245 242 244 246 244 241 242 240
177 212 205 212 225 225 214 210 210 231 243 251 261 278 300 333 329 313 309 308 287 272 266 254 260 271 253 234 232 243 255 271 277 267 259 257 248 242 245 247 250 250 249 233
207 210 206 201 205 211 222 221 219 229 240 257 287 313 308 283 283 292 301 314 322 315 298 272 268 279 267 245 242 249 256 263 264 260 262 260 259 247 240 241 247 253 257 244
210 207 209 210 206 199 209 221 218 231 243 216 203 234 251 256 258 270 281 288 288 292 292 286 277 275 265 259 254 236 248 261 271 272 264 261 264 261 250 244 247 248 249 245
217 203 199 204 197 195 205 217 214 230 244 227 212 232 268 278 274 270 266 261 261 261 271 277 274 269 258 257 262 243 249 253 260 268 267 260 261 262 259 257 256 251 245 240
232 223 214 208 214 226 214 207 211 234 248 226 212 233 256 276 277 264 257 276 284 276 269 264 261 263 254 249 255 244 246 250 254 260 263 262 264 268 266 260 259 258 252 249
241 228 229 226 214 240 244 225 217 224 234 233 232 235 252 271 274 272 258 255 266 269 268 270 265 259 260 261 252 244 243 249 256 260 263 263 260 263 266 265 261 262 263 261
237 231 226 225 217 222 251 255 230 214 222 229 230 234 238 247 245 245 271 272 267 263 266 267 271 269 267 260 257 252 254 261 261 257 256 257 257 255 261 267 263 263 264 266
243 234 227 214 183 184 229 257 258 241 235 242 236 231 222 240 267 257 254 263 266 269 271 271 273 268 256 250 247 246 253 260 260 259 262 262 262 261 257 260 265 267 261 259
241 237 217 190 199 217 228 241 271 279 268 275 279 267 246 223 231 254 265 267 268 274 284 280 271 268 259 255 251 251 253 253 256 260 261 265 265 265 264 263 263 265 264 258
230 228 227 224 222 219 212 203 231 256 252 284 300 295 294 289 272 275 276 278 290 296 294 298 298 293 291 278 266 260 263 270 271 272 272 264 256 253 255 263 268 264 263 263
215 204 206 274 263 219 202 206 222 251 246 236 268 279 279 280 279 281 286 291 299 298 301 303 298 293 297 298 292 281 278 277 273 270 268 265 264 263 265 267 272 269 263 256